This is the latest recevied weather packets stored in our database for station/object NC4M. If no packets are shown the sender has not sent any weather packets the latest 10 day(s).
| Time | Temp. | Humidity | Pressure | Rain* | Wind** | Luminosity | Snow |
|---|---|---|---|---|---|---|---|
| 1787957044 | 26.67° C | 47% | 1020.2 hPa | 0 mm | - | 48 W/m² | - |
| 1787956743 | 27.22° C | 50% | 1020 hPa | 0 mm | - | 41 W/m² | - |
| 1787956439 | 27.78° C | 49% | 1020 hPa | 0 mm | - | 45 W/m² | - |
| 1787956134 | 27.78° C | 48% | 1019.9 hPa | 0 mm | - | 117 W/m² | - |
| 1787955829 | 28.33° C | 47% | 1020 hPa | 0 mm | - | 43 W/m² | - |
| 1787955525 | 28.89° C | 45% | 1020 hPa | 0 mm | - | 52 W/m² | - |
| 1787955224 | 29.44° C | 45% | 1020 hPa | 0 mm | - | 48 W/m² | - |
| 1787954919 | 30° C | 40% | 1019.9 hPa | 0 mm | - | 328 W/m² | - |
| 1787954615 | 30.56° C | 41% | 1020.2 hPa | 0 mm | - | 332 W/m² | - |
| 1787954314 | 30° C | 43% | 1020.1 hPa | 0 mm | - | 380 W/m² | - |
| 1787954010 | 29.44° C | 42% | 1020 hPa | 0 mm | - | 411 W/m² | - |
| 1787953708 | 29.44° C | 44% | 1020.2 hPa | 0 mm | - | 432 W/m² | - |
| 1787953404 | 30° C | 42% | 1020.1 hPa | 0 mm | - | 454 W/m² | - |
| 1787953102 | 29.44° C | 44% | 1020.2 hPa | 0 mm | - | 472 W/m² | - |
| 1787952802 | 29.44° C | 43% | 1020.3 hPa | 0 mm | - | 491 W/m² | - |
| 1787952496 | 28.89° C | 41% | 1020.3 hPa | 0 mm | - | 509 W/m² | - |
| 1787952194 | 29.44° C | 45% | 1020.6 hPa | 0 mm | - | 533 W/m² | - |
| 1787951891 | 29.44° C | 43% | 1020.3 hPa | 0 mm | - | 551 W/m² | - |
| 1787951587 | 29.44° C | 42% | 1020.6 hPa | 0 mm | - | 567 W/m² | - |
| 1787951283 | 29.44° C | 42% | 1020.7 hPa | 0 mm | - | 586 W/m² | - |
| 1787950978 | 29.44° C | 43% | 1020.7 hPa | 0 mm | - | 602 W/m² | - |
| 1787950673 | 28.89° C | 41% | 1020.8 hPa | 0 mm | - | 625 W/m² | - |
| 1787950370 | 28.89° C | 43% | 1020.7 hPa | 0 mm | - | 636 W/m² | - |
| 1787950065 | 29.44° C | 45% | 1020.7 hPa | 0 mm | - | 680 W/m² | - |
| 1787949761 | 29.44° C | 43% | 1020.6 hPa | 0 mm | - | 515 W/m² | - |
* Rain latest hour (hover to see other rain measurements)
** Current wind speed in m/s (hover to see current wind gust speed)